Terminal Aerodrome Forecast
Issued by NWS Twin Cities, MN

Home | Current Version | Previous Version | Text Only | Print | Product List | Glossary Off
Versions: 1 2 3 4 5 6 7 8 9 10 11 12 13 14

000
FTUS43 KMPX 251700
TAFSTC
TAF
KSTC 251720Z 2518/2618 26013G20KT P6SM SCT030 SCT250
     FM260000 27006KT P6SM SCT040 SCT250
     FM261600 33007KT P6SM SCT030 SCT250=

USA.gov is the U.S. government's official web portal to all federal, state and local government web resources and services.